Photometre #117[Polarized_P] IAOCA-KRSU AOT

File : 20220925_117.hum

25/09/2022,01:24:43,TEMP=8.9,BA=5.64,STAT.A
25/09/2022,01:28:12,TEMP=9.0,BA=5.64,STAT.A
25/09/2022,01:32:18,TEMP=9.0,BA=5.64,STAT.A
25/09/2022,01:37:09,TEMP=9.1,BA=5.64,STAT.A
25/09/2022,01:43:00,TEMP=9.2,BA=5.64,STAT.A
25/09/2022,01:50:14,TEMP=9.2,BA=5.64,STAT.A
25/09/2022,01:59:23,TEMP=9.4,BA=5.64,STAT.B
25/09/2022,02:08:28,TEMP=10.4,BA=5.64,STAT.A
25/09/2022,02:10:35,TEMP=10.6,BA=5.64,STAT.A
25/09/2022,02:14:16,TEMP=10.9,BA=5.64,STAT.A
25/09/2022,02:20:43,TEMP=11.4,BA=5.64,STAT.A
25/09/2022,02:27:46,TEMP=11.9,BA=5.64,STAT.C
25/09/2022,02:44:08,TEMP=13.2,BA=5.64,STAT.A
25/09/2022,02:46:16,TEMP=13.5,BA=5.64,STAT.A
25/09/2022,02:58:03,TEMP=14.2,BA=5.64,STAT.A
25/09/2022,03:12:48,TEMP=15.3,BA=5.64,STAT.A
25/09/2022,03:31:25,TEMP=16.8,BA=5.64,STAT.B
25/09/2022,03:40:10,TEMP=17.8,BA=5.64,STAT.F
25/09/2022,03:56:14,TEMP=18.9,BA=5.64,STAT.D
25/09/2022,04:08:14,TEMP=19.4,BA=5.64,STAT.D
25/09/2022,04:23:19,TEMP=20.0,BA=5.64,STAT.D
25/09/2022,04:38:13,TEMP=20.5,BA=5.64,STAT.F
25/09/2022,05:05:53,TEMP=21.0,BA=5.64,STAT.D
25/09/2022,05:08:23,TEMP=21.0,BA=5.64,STAT.D
25/09/2022,05:23:15,TEMP=21.1,BA=5.60,STAT.D
25/09/2022,05:38:14,TEMP=21.1,BA=5.60,STAT.E
25/09/2022,05:53:14,TEMP=21.6,BA=5.60,STAT.D
25/09/2022,06:08:15,TEMP=21.4,BA=5.60,STAT.D
25/09/2022,06:23:45,TEMP=21.1,BA=5.60,STAT.D
25/09/2022,06:38:18,TEMP=21.3,BA=5.56,STAT.E
25/09/2022,07:00:38,TEMP=21.7,BA=5.60,STAT.D
25/09/2022,07:08:14,TEMP=21.8,BA=5.60,STAT.D
25/09/2022,07:23:17,TEMP=21.8,BA=5.56,STAT.D
25/09/2022,07:38:17,TEMP=22.3,BA=5.56,STAT.E
25/09/2022,07:53:15,TEMP=22.8,BA=5.52,STAT.D
25/09/2022,08:08:15,TEMP=23.0,BA=5.52,STAT.D
25/09/2022,08:23:19,TEMP=23.1,BA=5.52,STAT.D
25/09/2022,08:38:20,TEMP=23.4,BA=5.52,STAT.F
25/09/2022,08:54:13,TEMP=23.2,BA=5.52,STAT.D
25/09/2022,09:08:14,TEMP=23.0,BA=5.52,STAT.D
25/09/2022,09:23:14,TEMP=22.9,BA=5.52,STAT.D
25/09/2022,09:38:23,TEMP=22.7,BA=5.48,STAT.F
25/09/2022,09:54:02,TEMP=22.0,BA=5.48,STAT.B
25/09/2022,10:03:52,TEMP=21.9,BA=5.48,STAT.A
25/09/2022,10:18:34,TEMP=21.7,BA=5.52,STAT.A
25/09/2022,10:30:25,TEMP=21.7,BA=5.52,STAT.A
25/09/2022,10:40:23,TEMP=21.5,BA=5.52,STAT.A
25/09/2022,10:48:54,TEMP=21.5,BA=5.52,STAT.C
25/09/2022,11:04:48,TEMP=20.6,BA=5.52,STAT.A
25/09/2022,11:06:41,TEMP=20.5,BA=5.52,STAT.A
25/09/2022,11:08:35,TEMP=20.2,BA=5.52,STAT.A
25/09/2022,11:12:40,TEMP=19.6,BA=4.36,STAT.A
25/09/2022,11:17:02,TEMP=19.0,BA=4.36,STAT.B
25/09/2022,11:26:10,TEMP=17.5,BA=5.52,STAT.A
25/09/2022,11:33:24,TEMP=16.4,BA=5.56,STAT.A
25/09/2022,11:39:15,TEMP=15.8,BA=5.56,STAT.A
25/09/2022,11:54:35,TEMP=14.4,BA=5.60,STAT.A
25/09/2022,11:56:27,TEMP=14.2,BA=5.60,STAT.A
25/09/2022,11:58:21,TEMP=14.2,BA=5.60,STAT.A